CW3742 Weather Reports


time (UTC)temp
C
wind
direction
speed
KPH
gust
KPH
rain 1hr
cm
rain 24hr
cm
rain mn
cm
humidity
%
barometer
mb
20260505070016 9 0 8.0 14.5 0.00 0.25 0.00 70 1006.3
20260505063017 10 0 12.9 20.9 0.00 0.25 0.00 70 1005.9
20260505060036 10 0 12.9 19.3 0.00 0.25 0.00 65 1005.3
20260505053016 11 0 12.9 20.9 0.00 0.25 0.00 63 1004.0
20260505040016 13 0 12.9 20.9 0.00 0.25 0.25 62 1003.2
20260505033016 14 0 14.5 22.5 0.00 0.25 0.25 59 1003.5
20260505023017 16 0 14.5 25.7 0.00 0.25 0.25 57 1002.2
20260505020016 17 0 20.9 32.2 0.00 0.25 0.25 54 1001.3
20260505013036 18 0 11.3 24.1 0.00 0.25 0.25 62 1000.2
20260505010016 20 0 9.7 24.1 0.25 0.25 0.25 71 999.9
20260505003016 20 0 16.1 57.9 0.25 0.25 0.25 68 998.5
20260505000017 20 0 20.9 48.3 0.00 0.00 0.00 57 998.2
20260504233016 22 0 9.7 43.5 0.00 0.00 0.00 49 998.6
20260504230016 23 0 12.9 40.2 0.00 0.00 0.00 45 997.6
20260504223037 23 0 25.7 57.9 0.00 0.00 0.00 43 998.0
20260504220016 28 0 27.4 46.7 0.00 0.00 0.00 35 997.8
20260504213016 28 0 27.4 45.1 0.00 0.00 0.00 34 998.1
20260504210016 28 0 27.4 41.8 0.00 0.00 0.00 34 998.4
20260504203016 28 0 25.7 40.2 0.00 0.00 0.00 32 998.9
20260504200016 28 0 25.7 43.5 0.00 0.00 0.00 35 999.5
20260504193037 28 0 22.5 43.5 0.00 0.00 0.00 36 999.7
20260504190016 27 0 25.7 41.8 0.00 0.00 0.00 35 999.7
20260504183016 27 0 25.7 38.6 0.00 0.00 0.00 36 999.9
20260504180016 26 0 20.9 33.8 0.00 0.00 0.00 41 1000.0
20260504173016 26 0 24.1 37.0 0.00 0.00 0.00 43 1000.1